User: anonymous   Login
Location: Churchill
(58.7670°N, 94.1670°W)
Time: 02:59:39
(UTC-05:00)
Language:

Cosmos 2142 Rocket - Orbit

View from above orbital plane
View from above orbital plane
View from above satellite
View from above satellite

Ground track
Ground track

The orbit data is extracted from the following two-line orbital elements,

1 21231U 91029B   16121.80660125  .00000066  00000-0  52816-4 0  9997
2 21231  82.9541  54.1280 0033855 303.6099 111.7600 13.75713084257081
Epoch (UTC): 30 April 2016 19:21:30
Eccentricity: 0.0033855
inclination: 82.9541°
perigee height: 954 km
apogee height: 1004 km
right ascension of ascending node: 54.1280°
argument of perigee: 303.6099°
revolutions per day: 13.75713084
mean anomaly at epoch: 111.7600°
orbit number at epoch: 25708

The dashed part of the orbit path shows where the satellite is in the earth's shadow,  

DLR